Location: Unspecified
(52.9776°N, 0.0000°E)
Time: 04:51:46
(UTC+00:00)

AO-85 - Visible Passes

Search period start: 05 April 2026 00:00
Search period end: 15 April 2026 00:00
Orbit: 507 x 686 km, 64.8° (Epoch: 29 March)

Date Brightness Start Highest point End Pass type
(mag) Time Alt. Az. Time Alt. Az. Time Alt. Az.
5 Apr ? 01:01:50 23° N 01:01:50 23° N 01:04:22 10° NNE visible
5 Apr ? 02:39:33 10° NW 02:41:46 15° N 02:44:00 10° NNE visible
5 Apr ? 04:19:26 10° NNW 04:22:26 21° NNE 04:25:29 10° ENE visible
5 Apr ? 23:34:26 15° NE 23:34:26 15° NE 23:35:10 10° NE visible
6 Apr ? 01:11:03 19° NNW 01:11:23 19° NNW 01:14:15 10° NNE visible
6 Apr ? 02:49:50 10° NNW 02:52:05 15° N 02:54:20 10° NE visible
6 Apr ? 04:29:18 10° NNW 04:32:38 27° NNE 04:36:01 10° E visible
6 Apr ? 23:43:34 21° NNE 23:43:34 21° NNE 23:45:02 10° NE visible
7 Apr ? 01:20:10 14° NW 01:21:38 17° NNW 01:24:12 10° NNE visible
7 Apr ? 02:59:57 10° NNW 03:02:23 16° N 03:04:51 10° NE visible
7 Apr ? 04:39:09 10° NW 04:42:46 36° NE 04:46:26 10° ESE visible
7 Apr ? 23:52:35 25° N 23:52:35 25° N 23:54:53 10° NNE visible
8 Apr ? 01:29:37 10° NW 01:31:55 15° N 01:34:14 10° NNE visible
8 Apr ? 03:09:54 10° NNW 03:12:39 18° NNE 03:15:26 10° ENE visible
8 Apr ? 22:24:51 15° NE 22:24:51 15° NE 22:25:37 10° NE visible
9 Apr ? 00:01:25 23° NNW 00:01:35 23° NNW 00:04:43 10° NNE visible
9 Apr ? 01:40:01 10° NW 01:42:13 15° N 01:44:26 10° NE visible
9 Apr ? 03:19:48 10° NNW 03:22:53 22° NNE 03:25:59 10° ENE visible
9 Apr ? 22:33:22 30° NNE 22:33:22 30° NNE 22:35:30 10° NE visible
10 Apr ? 00:09:55 14° NW 00:11:47 19° NNW 00:14:36 10° NNE visible
10 Apr ? 01:50:14 10° NNW 01:52:30 15° N 01:54:48 10° NE visible
10 Apr ? 03:29:38 10° NNW 03:33:01 28° NNE 03:36:28 10° E visible
10 Apr ? 21:04:40 18° ENE 21:04:40 18° ENE 21:05:55 10° ENE visible
10 Apr ? 22:41:08 36° WNW 22:41:42 39° NW 22:45:20 10° NE visible
11 Apr ? 00:19:31 10° NW 00:22:01 16° NNW 00:24:32 10° NNE visible
11 Apr ? 02:00:17 10° NNW 02:02:47 16° NNE 02:05:18 10° NE visible
11 Apr ? 03:39:28 10° NW 03:43:06 38° NE 03:46:51 10° ESE visible
11 Apr ? 21:08:15 10° SSW 21:12:09 61° SE 21:15:58 10° NE visible
11 Apr ? 22:48:22 10° W 22:51:46 28° NNW 22:55:10 10° NNE visible
12 Apr ? 00:30:01 10° NW 00:32:17 15° N 00:34:34 10° NNE visible
12 Apr ? 02:10:12 10° NNW 02:13:01 19° NNE 02:15:51 10° ENE visible
12 Apr ? 03:49:17 10° NW 03:53:07 56° NE 03:57:03 10° ESE visible
12 Apr ? 19:40:47 10° SSE 19:43:09 16° ESE 19:45:29 10° ENE visible
12 Apr ? 21:18:05 10° SW 21:22:01 83° NW 21:25:53 10° NE visible
12 Apr ? 22:58:49 10° WNW 23:01:54 22° NNW 23:04:59 10° NNE visible
13 Apr ? 00:40:21 10° NW 00:42:34 15° N 00:44:46 10° NE visible
13 Apr ? 02:20:03 10° NNW 02:23:11 23° NNE 02:26:22 10° E visible
13 Apr ? 03:59:08 10° NW 04:03:03 87° NE 04:07:04 10° SE visible
13 Apr ? 19:49:33 10° S 19:52:49 25° ESE 19:56:00 10° ENE visible
13 Apr ? 21:28:06 10° WSW 21:31:57 53° NW 21:35:44 10° NE visible
13 Apr ? 23:09:20 10° WNW 23:12:05 18° NNW 23:14:50 10° NNE visible
14 Apr ? 00:50:30 10° NNW 00:52:50 15° N 00:55:09 10° NE visible
14 Apr ? 02:29:51 10° NNW 02:33:18 30° NNE 02:36:49 10° E visible
14 Apr ? 04:09:04 10° NW 04:12:54 58° SW 04:16:51 10° SSE visible
14 Apr ? 19:58:50 10° SSW 20:02:32 40° SE 20:06:10 10° NE visible
14 Apr ? 21:38:19 10° WSW 21:41:56 36° NW 21:45:32 10° NE visible
14 Apr ? 23:19:51 10° NW 23:22:18 16° N 23:24:45 10° NNE visible
